AirNav   Pilot Hours Calculator
 
 963 users online  

66NY Maple Ridge Airport
Medina, New York, USA

GOING TO MEDINA?


FAA INFORMATION EFFECTIVE 31 DECEMBER 2020

Location

FAA Identifier: 66NY
Lat/Long: 43-12-10.2100N 078-21-14.0840W
43-12.170167N 078-21.234733W
43.2028361,-78.3539122
(estimated)
Elevation: 646 ft. / 197 m (estimated)
Variation: 10W (1985)
From city: 2 miles SE of MEDINA, NY
Time zone: UTC -5 (UTC -4 during Daylight Saving Time)
Zip code: 14103

Airport Operations

Airport use: Private use. Permission required prior to landing
Activation date: 10/1975
Control tower: no
ARTCC: CLEVELAND CENTER
FSS: BUFFALO FLIGHT SERVICE STATION
Attendance: UNATNDD
Wind indicator: yes
Segmented circle: no

Airport Communications

WX AWOS-3PT at GVQ (13 nm SE): 127.525 (585-343-6369)

Nearby radio navigation aids

VOR radial/distance  VOR name  Freq  Var
BUFr046/20.8BUFFALO VOR/DME116.4008W
ROCr292/30.2ROCHESTER VOR/DME110.0012W
GEEr318/35.1GENESEO VOR/DME108.2009W

Airport Services

Runway Information

Runway 18/36

Dimensions: 2800 x 60 ft. / 853 x 18 m
Surface: turf
RUNWAY 18  RUNWAY 36
Traffic pattern: leftleft
Obstructions: pline, 750 ft. from runwaytrees, 100 ft. from runway

Airport Ownership and Management from official FAA records

Ownership: Privately-owned
Owner: LEWIS M. PHINNEY
12008 MAPLE RIDGE RD
MEDINA, NY 14103
Phone 716-798-3379
Manager: MILFORD L PHINNEY
11986 TELEGRAPH RD
MEDINA, NY 14103
Phone 716-798-4746

Airport Operational Statistics

Aircraft based on the field: 2
Single engine airplanes: 2
    

Additional Remarks

OCCASIONAL USE BY MILITARY HELICOPTERS FOR PRACTICE.
FOR CD CTC CLEVELAND ARTCC AT 440-774-0490.

Instrument Procedures

There are no published instrument procedures at 66NY.

Some nearby airports with instrument procedures:

9G6 - Pine Hill Airport (4 nm SE)
9G3 - Akron Airport/Jesson Field (12 nm SW)
KGVQ - Genesee County Airport (13 nm SE)
7G0 - Ledgedale Airpark (19 nm E)
5G0 - Le Roy Airport (23 nm SE)
 
Loc | Ops | Rwys | IFR | FBO | Links
Com | Nav | Svcs | Stats | Notes
Area around 66NY (Maple Ridge Airport)
 
Road maps at: MapQuest Bing Google
 
Aerial photo
No photo
 
Sectional chart

 
Airport distance calculator
Flying to Maple Ridge Airport? Find the distance to fly.

From to 66NY

Sunrise and sunset
Times for 17-Jan-2021
 Local
(UTC-5)
 Zulu
(UTC)
Morning civil twilight07:1112:11
Sunrise07:4312:43
Sunset17:0522:05
Evening civil twilight17:3622:36

Current date and time
Zulu (UTC)  18-Jan-2021 00:17:25
Local (UTC-5)  17-Jan-2021 19:17:25
 
METAR
KGVQ 
13nm SE 
172356Z AUTO 29008KT 10SM OVC075 01/M02 A2961 RMK AO2 SLP037 T00111022 10022 20011 51010 FZRANO
KBUF 
23nm SW 
172354Z 25010KT 10SM OVC080 02/M02 A2963 RMK AO2 SNE16 SLP041 P0000 60000 T00221022 10044 20022 51010 $
KIAG 
26nm W 
172353Z 26008KT 10SM OVC080 01/M02 A2963 RMK AO2 SLP045 T00111022 10039 20011 51010 $
TAF
KBUF 
23nm SW 
172050Z 1721/1818 26014KT P6SM BKN040 FM172200 26012KT P6SM OVC025 FM180400 26009KT P6SM VCSH OVC015 FM181000 27006KT 2SM -SHSN OVC010
KIAG 
26nm W 
172050Z 1721/1818 27014KT P6SM BKN025 FM172300 26007KT P6SM OVC025 FM180500 26007KT P6SM VCSH OVC015 FM181100 28004KT 6SM -SHSN OVC010
NOTAMs
Click for the latest NOTAMs
NOTAMs are issued by the DoD/FAA and will open in a separate window not controlled by AirNav.

 

 
 

Would you like to see your business listed on this page?

 If your business provides an interesting product or service to pilots, flight crews, aircraft, or users of the Maple Ridge Airport, you should consider listing it here.  To start the listing process, click on the button below
 
Add a business
 

Other Pages about Maple Ridge Airport

Update a link
 
Copyright © AirNav, LLC. All rights reserved. Privacy Policy  Contact